Вернуться в каталог

NAVSTAR 76

USA 266

АктивенНавигацияHEO
NORAD 41328·PAYLOAD·🇺🇸 United States

Запущен Feb 5, 2016 с Cape Canaveral Space Force Station

Loading…

Ближайшие Пролёты (ближайшие 24 часа)

TLE

СвежийSource: CelesTrak SupGP

Эпоха: Sep 16, 2026, 16:44 UTC

1 41328C 16007A   26259.69756944  .00000000  00000+0  00000+0 0  2593
2 41328  55.5858  85.8321 0097727 247.2554 178.5479  2.00572832    15

Отслеживайте NAVSTAR 76 в реальном времени с AllMySat

Download on the App Store